Location: Joplin
(37.0842°N, 94.5131°W)
Time: 00:10:38
(UTC-06:00)

ISS - Visible Passes

Search period start: 22 January 2019 00:00
Search period end: 01 February 2019 00:00
Orbit: 404 x 410 km, 51.6° (Epoch: 22 January)

Date Brightness Start Highest point End Pass type
(mag) Time Alt. Az. Time Alt. Az. Time Alt. Az.
22 Jan -3.8 18:36:02 10° SW 18:39:17 71° SE 18:40:59 26° ENE visible
23 Jan -2.0 19:21:52 10° W 19:24:37 24° NNW 19:24:45 24° NNW visible
24 Jan -2.8 18:30:01 10° WSW 18:33:10 41° NW 18:35:43 14° NNE visible
25 Jan -1.3 19:16:57 10° NW 19:18:45 14° NNW 19:19:20 13° NNW visible
26 Jan -1.7 18:24:38 10° WNW 18:27:09 20° NNW 18:29:41 10° NNE visible
28 Jan -1.2 18:19:56 10° NW 18:21:15 12° NNW 18:22:35 10° N visible
